Year,Month,Day,Hour,Minute,Value (Times are PST for temperature in C)
2008,04,28,00,01,6.40
2008,04,28,00,03,6.40
2008,04,28,00,04,6.40
2008,04,28,00,06,6.60
2008,04,28,00,08,6.60
2008,04,28,00,09,6.60
2008,04,28,00,10,6.60
2008,04,28,00,11,6.60
2008,04,28,00,12,6.60
2008,04,28,00,13,6.60
2008,04,28,00,14,6.60
2008,04,28,00,15,6.60
2008,04,28,00,16,6.60
2008,04,28,00,19,6.70
2008,04,28,00,21,6.70
2008,04,28,00,23,6.70
2008,04,28,00,26,6.70
2008,04,28,00,27,6.80
2008,04,28,00,33,6.80
2008,04,28,00,34,6.80
2008,04,28,00,35,6.80
2008,04,28,00,36,6.80
2008,04,28,00,37,6.80
2008,04,28,00,38,6.80
2008,04,28,00,39,6.80
2008,04,28,00,40,6.80
2008,04,28,00,41,6.80
2008,04,28,00,42,6.80
2008,04,28,00,43,6.80
2008,04,28,00,44,6.80
2008,04,28,00,45,6.80
2008,04,28,00,46,6.90
2008,04,28,00,47,6.90
2008,04,28,00,48,6.90
2008,04,28,00,49,6.90
2008,04,28,00,50,6.90
2008,04,28,00,52,6.90
2008,04,28,00,54,6.90
2008,04,28,00,55,6.90
2008,04,28,00,56,6.90
2008,04,28,00,57,6.90
2008,04,28,00,58,6.90
2008,04,28,00,59,6.90
2008,04,28,01,00,6.90
2008,04,28,01,01,6.90
2008,04,28,01,02,6.90
2008,04,28,01,03,6.90
2008,04,28,01,04,7.00
2008,04,28,01,06,7.00
2008,04,28,01,07,7.00
2008,04,28,01,08,7.00
2008,04,28,01,09,7.00
2008,04,28,01,10,7.00
2008,04,28,01,15,7.00
2008,04,28,01,16,7.00
2008,04,28,01,17,7.00
2008,04,28,01,18,7.00
2008,04,28,01,19,6.90
2008,04,28,01,21,6.90
2008,04,28,01,23,7.00
2008,04,28,01,24,7.00
2008,04,28,01,25,7.00
2008,04,28,01,26,7.00
2008,04,28,01,27,7.00
2008,04,28,01,28,7.00
2008,04,28,01,29,7.00
2008,04,28,01,30,7.00
2008,04,28,01,31,6.90
2008,04,28,01,32,6.90
2008,04,28,01,33,6.90
2008,04,28,01,34,6.90
2008,04,28,01,35,6.90
2008,04,28,01,36,6.90
2008,04,28,01,37,6.80
2008,04,28,01,38,6.80
2008,04,28,01,39,6.80
2008,04,28,01,40,6.80
2008,04,28,01,41,6.80
2008,04,28,01,42,6.80
2008,04,28,01,43,6.80
2008,04,28,01,44,6.80
2008,04,28,01,45,6.70
2008,04,28,01,46,6.70
2008,04,28,01,47,6.70
2008,04,28,01,48,6.70
2008,04,28,01,49,6.70
2008,04,28,01,50,6.80
2008,04,28,01,51,6.80
2008,04,28,01,52,6.80
2008,04,28,01,53,6.80
2008,04,28,01,54,6.80
2008,04,28,01,55,6.80
2008,04,28,01,56,6.80
2008,04,28,01,57,6.80
2008,04,28,01,58,6.80
2008,04,28,01,59,6.80
2008,04,28,02,00,6.80
2008,04,28,02,01,6.80
2008,04,28,02,02,6.80
2008,04,28,02,03,6.80
2008,04,28,02,04,6.80
2008,04,28,02,05,6.90
2008,04,28,02,06,6.90
2008,04,28,02,07,6.90
2008,04,28,02,08,6.90
2008,04,28,02,10,7.00
2008,04,28,02,11,7.00
2008,04,28,02,12,7.00
2008,04,28,02,13,7.10
2008,04,28,02,14,7.10
2008,04,28,02,15,7.20
2008,04,28,02,16,7.20
2008,04,28,02,17,7.30
2008,04,28,02,19,7.30
2008,04,28,02,20,7.30
2008,04,28,02,21,7.30
2008,04,28,02,22,7.30
2008,04,28,02,23,7.30
2008,04,28,02,24,7.30
2008,04,28,02,25,7.30
2008,04,28,02,26,7.30
2008,04,28,02,28,7.30
2008,04,28,02,30,7.40
2008,04,28,02,33,7.40
2008,04,28,02,37,7.40
2008,04,28,02,39,7.40
2008,04,28,02,41,7.40
2008,04,28,02,42,7.40
2008,04,28,02,43,7.40
2008,04,28,02,44,7.40
2008,04,28,02,45,7.40
2008,04,28,02,47,7.40
2008,04,28,02,48,7.40
2008,04,28,02,50,7.40
2008,04,28,02,51,7.50
2008,04,28,02,52,7.50
2008,04,28,02,53,7.50
2008,04,28,02,54,7.50
2008,04,28,02,55,7.50
2008,04,28,02,56,7.50
2008,04,28,02,57,7.50
2008,04,28,02,58,7.50
2008,04,28,02,59,7.50
2008,04,28,03,00,7.50
2008,04,28,03,01,7.50
2008,04,28,03,02,7.50
2008,04,28,03,03,7.50
2008,04,28,03,04,7.60
2008,04,28,03,05,7.60
2008,04,28,03,06,7.60
2008,04,28,03,07,7.60
2008,04,28,03,08,7.60
2008,04,28,03,09,7.70
2008,04,28,03,10,7.70
2008,04,28,03,11,7.70
2008,04,28,03,12,7.70
2008,04,28,03,13,7.70
2008,04,28,03,14,7.70
2008,04,28,03,15,7.70
2008,04,28,03,16,7.70
2008,04,28,03,17,7.70
2008,04,28,03,18,7.70
2008,04,28,03,19,7.60
2008,04,28,03,20,7.60
2008,04,28,03,21,7.60
2008,04,28,03,22,7.60
2008,04,28,03,23,7.60
2008,04,28,03,24,7.60
2008,04,28,03,25,7.70
2008,04,28,03,26,7.70
2008,04,28,03,27,7.70
2008,04,28,03,28,7.70
2008,04,28,03,29,7.70
2008,04,28,03,30,7.70
2008,04,28,03,31,7.70
2008,04,28,03,32,7.70
2008,04,28,03,33,7.70
2008,04,28,03,34,7.70
2008,04,28,03,36,7.70
2008,04,28,03,37,7.70
2008,04,28,03,38,7.70
2008,04,28,03,39,7.80
2008,04,28,03,40,7.80
2008,04,28,03,41,7.80
2008,04,28,03,42,7.70
2008,04,28,03,43,7.70
2008,04,28,03,44,7.70
2008,04,28,03,45,7.80
2008,04,28,03,46,7.80
2008,04,28,03,47,7.80
2008,04,28,03,48,7.80
2008,04,28,03,49,7.80
2008,04,28,03,50,7.80
2008,04,28,03,51,7.80
2008,04,28,03,52,7.80
2008,04,28,03,53,7.80
2008,04,28,03,54,7.80
2008,04,28,03,55,7.80
2008,04,28,03,56,7.80
2008,04,28,03,57,7.80
2008,04,28,03,58,7.80
2008,04,28,03,59,7.80
2008,04,28,04,00,7.80
2008,04,28,04,01,7.80
2008,04,28,04,02,7.80
2008,04,28,04,03,7.80
2008,04,28,04,06,7.80
2008,04,28,04,07,7.80
2008,04,28,04,08,7.80
2008,04,28,04,09,7.80
2008,04,28,04,10,7.80
2008,04,28,04,11,7.70
2008,04,28,04,12,7.70
2008,04,28,04,15,7.70
2008,04,28,04,17,7.60
2008,04,28,04,18,7.60
2008,04,28,04,20,7.60
2008,04,28,04,21,7.60
2008,04,28,04,28,7.60
2008,04,28,04,30,7.60
2008,04,28,04,31,7.60
2008,04,28,04,32,7.60
2008,04,28,04,33,7.60
2008,04,28,04,34,7.60
2008,04,28,04,37,7.70
2008,04,28,04,38,7.70
2008,04,28,04,39,7.70
2008,04,28,04,40,7.70
2008,04,28,04,41,7.70
2008,04,28,04,42,7.70
2008,04,28,04,43,7.70
2008,04,28,04,44,7.70
2008,04,28,04,45,7.70
2008,04,28,04,46,7.70
2008,04,28,04,48,7.80
2008,04,28,04,50,7.80
2008,04,28,04,51,7.80
2008,04,28,04,52,7.80
2008,04,28,04,58,7.80
2008,04,28,04,59,7.80
2008,04,28,05,00,7.80
2008,04,28,05,01,7.80
2008,04,28,05,03,7.90
2008,04,28,05,04,7.90
2008,04,28,05,05,7.90
2008,04,28,05,07,7.90
2008,04,28,05,09,8.00
2008,04,28,05,12,8.00
2008,04,28,05,13,8.10
2008,04,28,05,14,8.10
2008,04,28,05,15,8.10
2008,04,28,05,16,8.10
2008,04,28,05,17,8.10
2008,04,28,05,18,8.10
2008,04,28,05,19,8.20
2008,04,28,05,21,8.10
2008,04,28,05,22,8.10
2008,04,28,05,23,8.10
2008,04,28,05,24,8.10
2008,04,28,05,25,8.10
2008,04,28,05,26,8.10
2008,04,28,05,27,8.10
2008,04,28,05,28,8.10
2008,04,28,05,29,8.10
2008,04,28,05,31,8.20
2008,04,28,05,32,8.20
2008,04,28,05,33,8.20
2008,04,28,05,34,8.20
2008,04,28,05,35,8.20
2008,04,28,05,36,8.20
2008,04,28,05,40,8.20
2008,04,28,05,41,8.20
2008,04,28,05,42,8.20
2008,04,28,05,43,8.20
2008,04,28,05,44,8.20
2008,04,28,05,45,8.20
2008,04,28,05,46,8.20
2008,04,28,05,49,8.20
2008,04,28,05,51,8.20
2008,04,28,05,52,8.20
2008,04,28,05,53,8.20
2008,04,28,05,55,8.20
2008,04,28,05,56,8.20
2008,04,28,05,57,8.20
2008,04,28,05,59,8.20
2008,04,28,06,00,8.20
2008,04,28,06,01,8.20
2008,04,28,06,02,8.20
2008,04,28,06,03,8.20
2008,04,28,06,04,8.20
2008,04,28,06,05,8.20
2008,04,28,06,07,8.20
2008,04,28,06,08,8.20
2008,04,28,06,09,8.20
2008,04,28,06,11,8.20
2008,04,28,06,12,8.20
2008,04,28,06,14,8.20
2008,04,28,06,15,8.20
2008,04,28,06,16,8.20
2008,04,28,06,19,8.20
2008,04,28,06,20,8.20
2008,04,28,06,21,8.20
2008,04,28,06,24,8.20
2008,04,28,06,25,8.10
2008,04,28,06,26,8.10
2008,04,28,06,28,8.10
2008,04,28,06,29,8.10
2008,04,28,06,30,8.00
2008,04,28,06,31,8.00
2008,04,28,06,32,8.00
2008,04,28,06,33,8.00
2008,04,28,06,34,8.00
2008,04,28,06,36,8.00
2008,04,28,06,37,8.10
2008,04,28,06,38,8.10
2008,04,28,06,39,8.10
2008,04,28,06,40,8.10
2008,04,28,06,41,8.10
2008,04,28,06,42,8.10
2008,04,28,06,43,8.10
2008,04,28,06,44,8.10
2008,04,28,06,45,8.10
2008,04,28,06,46,8.10
2008,04,28,06,47,8.10
2008,04,28,06,48,8.10
2008,04,28,06,49,8.10
2008,04,28,06,50,8.10
2008,04,28,06,51,8.10
2008,04,28,06,52,8.10
2008,04,28,06,53,8.10
2008,04,28,06,54,8.10
2008,04,28,06,55,8.10
2008,04,28,06,56,8.10
2008,04,28,06,57,8.10
2008,04,28,06,58,8.10
2008,04,28,06,59,8.10
2008,04,28,07,00,8.10
2008,04,28,07,01,8.10
2008,04,28,07,02,8.10
2008,04,28,07,03,8.20
2008,04,28,07,04,8.20
2008,04,28,07,05,8.20
2008,04,28,07,06,8.20
2008,04,28,07,07,8.20
2008,04,28,07,08,8.20
2008,04,28,07,09,8.20
2008,04,28,07,10,8.20
2008,04,28,07,11,8.20
2008,04,28,07,12,8.20
2008,04,28,07,13,8.20
2008,04,28,07,14,8.20
2008,04,28,07,15,8.20
2008,04,28,07,16,8.20
2008,04,28,07,17,8.20
2008,04,28,07,18,8.20
2008,04,28,07,19,8.20
2008,04,28,07,20,8.20
2008,04,28,07,21,8.20
2008,04,28,07,22,8.30
2008,04,28,07,23,8.30
2008,04,28,07,24,8.30
2008,04,28,07,25,8.30
2008,04,28,07,26,8.30
2008,04,28,07,27,8.30
2008,04,28,07,28,8.30
2008,04,28,07,29,8.40
2008,04,28,07,30,8.40
2008,04,28,07,31,8.40
2008,04,28,07,32,8.40
2008,04,28,07,33,8.40
2008,04,28,07,34,8.50
2008,04,28,07,36,8.50
2008,04,28,07,37,8.50
2008,04,28,07,38,8.50
2008,04,28,07,39,8.60
2008,04,28,07,40,8.60
2008,04,28,07,41,8.60
2008,04,28,07,42,8.70
2008,04,28,07,43,8.70
2008,04,28,07,44,8.70
2008,04,28,07,45,8.70
2008,04,28,07,46,8.70
2008,04,28,07,47,8.70
2008,04,28,07,48,8.70
2008,04,28,07,49,8.70
2008,04,28,07,50,8.70
2008,04,28,07,51,8.70
2008,04,28,07,52,8.70
2008,04,28,07,53,8.70
2008,04,28,07,54,8.70
2008,04,28,07,55,8.80
2008,04,28,07,56,8.80
2008,04,28,07,57,8.80
2008,04,28,07,58,8.80
2008,04,28,07,59,8.90
2008,04,28,08,00,8.90
2008,04,28,08,01,8.90
2008,04,28,08,02,8.90
2008,04,28,08,03,8.90
2008,04,28,08,04,8.90
2008,04,28,08,05,9.00
2008,04,28,08,06,9.10
2008,04,28,08,07,9.10
2008,04,28,08,08,9.20
2008,04,28,08,09,9.20
2008,04,28,08,10,9.20
2008,04,28,08,11,9.30
2008,04,28,08,12,9.40
2008,04,28,08,13,9.40
2008,04,28,08,14,9.40
2008,04,28,08,15,9.40
2008,04,28,08,16,9.50
2008,04,28,08,17,9.50
2008,04,28,08,18,9.50
2008,04,28,08,19,9.60
2008,04,28,08,20,9.60
2008,04,28,08,21,9.60
2008,04,28,08,22,9.60
2008,04,28,08,23,9.60
2008,04,28,08,24,9.50
2008,04,28,08,25,9.40
2008,04,28,08,26,9.30
2008,04,28,08,27,9.30
2008,04,28,08,28,9.20
2008,04,28,08,29,9.20
2008,04,28,08,30,9.20
2008,04,28,08,31,9.20
2008,04,28,08,32,9.20
2008,04,28,08,33,9.20
2008,04,28,08,34,9.20
2008,04,28,08,35,9.20
2008,04,28,08,36,9.20
2008,04,28,08,37,9.20
2008,04,28,08,38,9.20
2008,04,28,08,39,9.20
2008,04,28,08,40,9.20
2008,04,28,08,41,9.20
2008,04,28,08,42,9.30
2008,04,28,08,43,9.30
2008,04,28,08,44,9.40
2008,04,28,08,45,9.50
2008,04,28,08,46,9.50
2008,04,28,08,47,9.50
2008,04,28,08,48,9.60
2008,04,28,08,49,9.50
2008,04,28,08,50,9.50
2008,04,28,08,51,9.60
2008,04,28,08,52,9.60
2008,04,28,08,53,9.60
2008,04,28,08,54,9.70
2008,04,28,08,55,9.70
2008,04,28,08,56,9.70
2008,04,28,08,57,9.70
2008,04,28,08,58,9.70
2008,04,28,08,59,9.80
2008,04,28,09,00,9.80
2008,04,28,09,01,9.90
2008,04,28,09,02,10.00
2008,04,28,09,03,10.10
2008,04,28,09,04,10.30
2008,04,28,09,05,10.40
2008,04,28,09,06,10.50
2008,04,28,09,07,10.40
2008,04,28,09,08,10.40
2008,04,28,09,09,10.60
2008,04,28,09,10,10.60
2008,04,28,09,11,10.60
2008,04,28,09,12,10.70
2008,04,28,09,13,10.70
2008,04,28,09,14,10.80
2008,04,28,09,15,10.80
2008,04,28,09,16,10.90
2008,04,28,09,17,11.00
2008,04,28,09,18,11.00
2008,04,28,09,19,10.90
2008,04,28,09,20,10.80
2008,04,28,09,21,10.70
2008,04,28,09,22,10.70
2008,04,28,09,23,10.80
2008,04,28,09,24,10.80
2008,04,28,09,25,10.80
2008,04,28,09,26,10.90
2008,04,28,09,27,10.90
2008,04,28,09,28,10.90
2008,04,28,09,29,10.90
2008,04,28,09,30,11.10
2008,04,28,09,31,11.10
2008,04,28,09,32,11.10
2008,04,28,09,33,11.20
2008,04,28,09,34,11.20
2008,04,28,09,35,11.30
2008,04,28,09,36,11.40
2008,04,28,09,37,11.40
2008,04,28,09,38,11.40
2008,04,28,09,39,11.40
2008,04,28,09,40,11.30
2008,04,28,09,41,11.30
2008,04,28,09,42,11.20
2008,04,28,09,43,11.20
2008,04,28,09,44,11.10
2008,04,28,09,45,11.10
2008,04,28,09,46,11.10
2008,04,28,09,47,11.10
2008,04,28,09,48,11.10
2008,04,28,09,49,11.10
2008,04,28,09,50,11.10
2008,04,28,09,51,11.10
2008,04,28,09,52,11.10
2008,04,28,09,53,11.10
2008,04,28,09,54,11.10
2008,04,28,09,55,11.20
2008,04,28,09,56,11.30
2008,04,28,09,57,11.40
2008,04,28,09,58,11.40
2008,04,28,09,59,11.40
2008,04,28,10,01,11.60
2008,04,28,10,02,11.60
2008,04,28,10,03,11.70
2008,04,28,10,04,11.70
2008,04,28,10,05,11.70
2008,04,28,10,06,11.70
2008,04,28,10,07,11.70
2008,04,28,10,08,11.70
2008,04,28,10,09,11.60
2008,04,28,10,10,11.70
2008,04,28,10,11,11.70
2008,04,28,10,12,11.70
2008,04,28,10,14,11.80
2008,04,28,10,16,11.80
2008,04,28,10,17,11.80
2008,04,28,10,19,11.80
2008,04,28,10,20,11.80
2008,04,28,10,25,11.80
2008,04,28,10,26,11.80
2008,04,28,10,28,11.80
2008,04,28,10,30,11.80
2008,04,28,10,31,11.80
2008,04,28,10,32,11.70
2008,04,28,10,33,11.70
2008,04,28,10,34,11.80
2008,04,28,10,35,11.90
2008,04,28,10,36,11.90
2008,04,28,10,37,12.00
2008,04,28,10,38,12.10
2008,04,28,10,40,12.20
2008,04,28,10,42,12.40
2008,04,28,10,43,12.50
2008,04,28,10,44,12.60
2008,04,28,10,45,12.70
2008,04,28,10,47,12.80
2008,04,28,10,49,12.60
2008,04,28,10,54,12.70
2008,04,28,10,55,12.80
2008,04,28,10,59,12.90
2008,04,28,11,09,12.70
2008,04,28,11,16,12.80
2008,04,28,11,25,12.30
2008,04,28,11,26,12.30
2008,04,28,11,27,12.30
2008,04,28,11,28,12.30
2008,04,28,11,34,12.60
2008,04,28,11,58,12.70
2008,04,28,11,59,12.60
2008,04,28,12,03,12.10
2008,04,28,12,04,11.90
2008,04,28,12,05,11.80
2008,04,28,12,18,10.80
2008,04,28,12,24,10.90
2008,04,28,12,29,11.30
2008,04,28,12,44,12.30
2008,04,28,14,21,14.20
2008,04,28,14,22,14.20
2008,04,28,14,37,14.00
2008,04,28,15,17,12.00
2008,04,28,15,49,10.90
2008,04,28,16,10,10.60
